This is the latest recevied weather packets stored in our database for station/object KQ4OSL. If no packets are shown the sender has not sent any weather packets the latest 10 day(s).
| Time | Temp. | Humidity | Pressure | Rain* | Wind** | Luminosity | Snow |
|---|---|---|---|---|---|---|---|
| 1777817695 | 13.89° C | 69% | 1022.3 hPa | 0 mm | - | 507 W/m² | - |
| 1777817392 | 13.89° C | 69% | 1022.2 hPa | 0 mm | - | 493 W/m² | - |
| 1777817089 | 13.89° C | 70% | 1022.3 hPa | 0 mm | - | 483 W/m² | - |
| 1777816785 | 13.33° C | 72% | 1022.2 hPa | 0 mm | - | 468 W/m² | - |
| 1777816483 | 13.33° C | 72% | 1021.9 hPa | 0 mm | - | 452 W/m² | - |
| 1777816180 | 13.33° C | 72% | 1022 hPa | 0 mm | - | 436 W/m² | - |
| 1777815878 | 13.33° C | 72% | 1022.1 hPa | 0 mm | - | 422 W/m² | - |
| 1777815575 | 13.33° C | 72% | 1022.1 hPa | 0 mm | - | 406 W/m² | - |
| 1777815273 | 12.78° C | 75% | 1021.9 hPa | 0 mm | - | 393 W/m² | - |
| 1777814968 | 12.78° C | 73% | 1022.1 hPa | 0 mm | - | 380 W/m² | - |
| 1777814665 | 12.22° C | 75% | 1022 hPa | 0 mm | - | 360 W/m² | - |
| 1777814362 | 12.22° C | 75% | 1022.1 hPa | 0 mm | - | 345 W/m² | - |
| 1777814059 | 12.22° C | 76% | 1022.1 hPa | 0 mm | - | 329 W/m² | - |
| 1777813756 | 11.67° C | 77% | 1021.8 hPa | 0 mm | - | 312 W/m² | - |
| 1777813453 | 11.67° C | 79% | 1021.9 hPa | 0 mm | - | 296 W/m² | - |
| 1777813150 | 11.11° C | 80% | 1022 hPa | 0 mm | - | 279 W/m² | - |
| 1777812848 | 11.67° C | 80% | 1022 hPa | 0 mm | - | 262 W/m² | - |
| 1777812544 | 11.11° C | 81% | 1022 hPa | 0 mm | - | 247 W/m² | - |
| 1777812243 | 10.56° C | 82% | 1021.9 hPa | 0 mm | - | 230 W/m² | - |
| 1777811941 | 10° C | 81% | 1021.9 hPa | 0 mm | - | 214 W/m² | - |
| 1777811639 | 10° C | 84% | 1021.7 hPa | 0 mm | - | 198 W/m² | - |
| 1777811339 | 10.56° C | 82% | 1021.7 hPa | 0 mm | - | 177 W/m² | - |
| 1777811037 | 8.89° C | 87% | 1021.7 hPa | 0 mm | - | 141 W/m² | - |
| 1777810734 | 7.78° C | 93% | 1021.6 hPa | 0 mm | - | 118 W/m² | - |
| 1777810430 | 6.67° C | 97% | 1021.7 hPa | 0 mm | - | 101 W/m² | - |
* Rain latest hour (hover to see other rain measurements)
** Current wind speed in m/s (hover to see current wind gust speed)